map of ELM home
ELM - Airport
Location
City:  Elmira/Corning, New York, United States
Name:Elmira/Corning Regional
ICAO:KELM
IATA:ELM
FAA LID:ELM

Details
Type:Airport (Part 139 Class I)
Use:Public/Civil
Latitude:4209'35"N (42.159856)
Longitude:7653'30"W (-76.891745)
Datum:WGS 1984
Elevation:954 ft (291 m)
Variation:11.67W (WMM2015 magnetic declination)
0.02 annual change
Runways:3
Longest:8001 × 150 ft (2439 × 45.5 m), paved

Time
Time Zone:UTC-5 (DST-4)
Local Time:

Weather
METAR:KELM 210553Z AUTO 00000KT 10SM CLR 03/03 A3027 RMK AO2 SLP253 T00330028 10100 20028 53012
TAF:KELM 210521Z 2106/2206 00000KT P6SM SKC
FM211800 19005KT P6SM BKN250

Related Locations
Nearby:
Farthest:MQZ: 11573 mi / 18624 km
Margaret River [Margaret River Airport], WA, AU

Find:

   beyond  
but within

Other Information
Maps:
Delays:
NOTAMs:
Links:
Sources:

  
flag of United States
flag of New York
  

Airport Diagram

Airport diagram for ELM

Airport diagram PDF

Sectional Chart

Flight Planning
at skyvector.com

Satellite Image

Google Maps Satellite view

 

Copyright © 2004-2017 Karl L. Swartz. All rights reserved.
The Great Circle Mapper name and logo are trademarks of the Great Circle Mapper.
All other trademarks mentioned herein belong to their respective owners.
Please see credits for attibutions and further copyright information.

  Follow gcmap on Facebook Follow gcmap on Twitter Follow gcmap on Google+ GCmap on LinkedIn

hCard Microformat

Geo Microformat